Retour au catalogue

SL-8 DEB

ActifLEO
NORAD 21332·DEBRIS·🇷🇺 Russia

Lancé Feb 12, 1991 depuis Plesetsk Cosmodrome

Loading…

Prochains Passages (prochaines 24 heures)

TLE

FraisSource: Space-Track

Époque: Sep 14, 2026, 07:28 UTC

1 21332U 91009CP  26257.31119668 -.00000299  00000-0 -27266-2 0  9994
2 21332  74.1972  14.9461 0147268 117.6044 271.9843 12.18433069529477

Suivez SL-8 DEB en temps réel avec AllMySat

Download on the App Store